This demonstration page uses our WeatherBlox Daily Observations layout. Learn more.

Left ArrowRight Arrow

Hourly Observations for August 16, 2022

Temp ( °F °C ) Dew Point ( °F °C ) Humidity (%) Winds ( mph kmh ) Pressure ( in mb ) Visibility ( mi km ) Precip ( " mm )
12:59 am 00:59 Partly Cloudy 66 18.9 63 17.2 90 90 NNW 8 13 29.95 1014 10 16 0.00 0.00
1:59 am 01:59 Mostly Cloudy 66 18.9 63 17.2 90 90 NNW 10 17 29.95 1014 10 16 0.00 0.00
2:29 am 02:29 Mostly Cloudy 66 18.9 63 17.2 90 90 N 8 13 29.94 1014 10 16 0.00 0.00
2:59 am 02:59 Mostly Cloudy 66 18.9 63 17.2 90 90 NNW 5 7 29.94 1014 10 16 0.00 0.00
3:59 am 03:59 Mostly Cloudy 66 18.9 63 17.2 90 90 undefined N/A 29.93 1014 10 16 0.00 0.00
4:59 am 04:59 Partly Cloudy 68 20 63 17.2 84 84 NNW 8 13 29.93 1013 10 16 0.00 0.00
5:59 am 05:59 Partly Cloudy 70 21.1 66 18.9 87 87 N 6 9 29.92 1013 10 16 0.00 0.00
6:59 am 06:59 Partly Cloudy 72 22.2 69 20.6 91 91 NNW 5 7 29.93 1014 10 16 0.00 0.00
7:59 am 07:59 Partly Cloudy with Light Rain 73 22.8 69 20.6 87 87 NNE 6 9 29.93 1014 10 16 0.01 0.13
8:59 am 08:59 Mostly Cloudy 73 22.8 69 20.6 87 87 ENE 13 20 29.94 1014 10 16 0.01 0.13
9:59 am 09:59 Partly Cloudy 75 23.9 67 19.4 76 76 E 12 19 29.95 1014 10 16 0.00 0.00
10:59 am 10:59 Mostly Cloudy 77 25 67 19.4 71 71 ENE 14 22 29.96 1015 10 16 0.00 0.00
11:59 am 11:59 Mostly Cloudy 79 26.1 67 19.4 67 67 NE 13 20 29.97 1015 10 16 0.00 0.00
12:59 pm 12:59 Mostly Cloudy 79 26.1 65 18.3 62 62 ENE 14 22 29.97 1015 10 16 0.00 0.00
1:59 pm 13:59 Mostly Cloudy 79 26.1 65 18.3 62 62 NE 13 20 29.97 1015 10 16 0.00 0.00
2:59 pm 14:59 Mostly Cloudy 79 26.1 64 17.8 60 60 ENE 14 22 29.96 1015 10 16 0.00 0.00
3:59 pm 15:59 Partly Cloudy 79 26.1 64 17.8 60 60 ENE 12 19 29.96 1014 10 16 0.00 0.00
4:59 pm 16:59 Partly Cloudy 79 26.1 64 17.8 60 60 ENE 10 17 29.96 1014 10 16 0.00 0.00
5:59 pm 17:59 Partly Cloudy 77 25 64 17.8 64 64 ENE 14 22 29.95 1014 10 16 0.00 0.00
6:59 pm 18:59 Mostly Sunny 77 25 64 17.8 64 64 ENE 13 20 29.96 1015 10 16 0.00 0.00
7:59 pm 19:59 Mostly Clear 74 23.3 65 18.3 74 74 ENE 14 22 29.96 1015 10 16 0.00 0.00
8:59 pm 20:59 Mostly Clear 74 23.3 66 18.9 76 76 E 12 19 29.96 1015 10 16 0.00 0.00
9:59 pm 21:59 Mostly Clear 73 22.8 66 18.9 79 79 ENE 13 20 29.97 1015 10 16 0.00 0.00
10:59 pm 22:59 Mostly Clear 72 22.2 66 18.9 82 82 ENE 12 19 29.97 1015 10 16 0.00 0.00
11:59 pm 23:59 Partly Cloudy 72 22.2 66 18.9 82 82 NE 8 13 29.98 1015 10 16 0.00 0.00

Powered by AerisWeather